Location: Carson
(33.8314°N, 118.2820°W)
Time: 14:27:53
(UTC+00:00)

SL-08 ROCKET BODY - Visible Passes

Search period start: 20 April 2021 00:00
Search period end: 30 April 2021 00:00
Orbit: 897 x 962 km, 83.0° (Epoch: 19 April)

Date Brightness Start Highest point End Pass type
(mag) Time Alt. Az. Time Alt. Az. Time Alt. Az.
20 Apr 6.2 05:32:09 10° NNE 05:34:31 21° NNE 05:34:31 21° NNE visible
20 Apr 6.7 07:16:39 10° NNW 07:18:14 17° NW 07:18:14 17° NW visible
21 Apr 5.9 05:43:31 10° N 05:46:23 27° NNE 05:46:23 27° NNE visible
21 Apr 6.9 07:29:06 10° NW 07:30:05 13° NW 07:30:05 13° NW visible
22 Apr 5.7 05:55:04 10° N 05:58:15 33° N 05:58:15 33° N visible
23 Apr 6.5 04:26:02 10° NE 04:26:26 10° ENE 04:26:26 10° ENE visible
23 Apr 5.7 06:06:47 10° N 06:10:09 35° NNW 06:10:09 35° NNW visible
24 Apr 6.2 04:35:54 10° NNE 04:38:20 16° NE 04:38:20 16° NE visible
24 Apr 5.8 06:18:38 10° NNW 06:22:03 34° NNW 06:22:03 34° NNW visible
25 Apr 5.8 04:46:46 10° NNE 04:50:15 23° NE 04:50:15 23° NE visible
25 Apr 6.0 06:30:39 10° NNW 06:33:57 28° NW 06:33:57 28° NW visible
26 Apr 5.3 04:58:00 10° NNE 05:02:10 33° NE 05:02:10 33° NE visible
26 Apr 6.3 06:42:55 10° NW 06:45:53 21° WNW 06:45:53 21° WNW visible
27 Apr 4.9 05:09:27 10° N 05:14:08 47° NE 05:14:08 47° NE visible
27 Apr 6.7 06:55:36 10° NW 06:57:50 15° WNW 06:57:50 15° WNW visible
28 Apr 4.6 05:21:04 10° N 05:26:05 64° NNE 05:26:05 64° NNE visible
29 Apr 6.1 03:51:04 10° NE 03:53:48 13° ENE 03:54:22 13° ENE visible
29 Apr 4.7 05:32:49 10° NNW 05:38:04 63° NW 05:38:04 63° NW visible
